Weather History for PAPG - September, 2013

Change the Weather History Date:

Friday, September 6, 2013

  Actual Average Record
Temperature  
Mean Temperature 57 °F -  
Max Temperature 66 °F 54 °F 67 °F (1985)
Min Temperature 48 °F 44 °F 36 °F (1985)
Degree Days  
Heating Degree Days 8    
Growing Degree Days 7 (Base 50)    
Moisture  
Dew Point 49 °F    
Average Humidity 80    
Maximum Humidity 100    
Minimum Humidity 52    
Precipitation  
Precipitation 0.00 in - - ()
Sea Level Pressure  
Sea Level Pressure 30.17 in    
Wind  
Wind Speed 1 mph (ENE)    
Max Wind Speed 6 mph    
Max Gust Speed -    
Visibility 9 miles    
Events Fog    
Averages and records for this station are not official NWS values.
T = Trace of Precipitation, MM = Missing Value Source: NWS Daily Summary

Daily Weather History Graph

Daily Weather History Graph

Search for Another Location

Airport or City:

Trip Planner

Search our weather history database for the weather conditions in past years. The results will help you decide how hot, cold, wet, or windy it might be!

Date:

Astronomy

Sep. 06, 2013 Rise Set
Actual Time 6:05 AM AKDT 7:33 PM AKDT
Civil Twilight 5:25 AM AKDT 8:12 PM AKDT
Nautical Twilight 4:36 AM AKDT 9:01 PM AKDT
Astronomical Twilight 3:40 AM AKDT 9:56 PM AKDT
Moon 7:51 AM AKDT (9/6) 7:30 PM AKDT (9/6)
Length of Visible Light 14h 46m
Length of Day
13h 27m
New Moon, 2% of the Moon is Illuminated
Sep 6
New Moon
Sep 12
First Quarter
Sep 19
Full
Sep 26
Last Quarter
Oct 4
New

Hourly Weather History & Observations

Time (AKDT) Temp. Dew Point Humidity Pressure Visibility Wind Dir Wind Speed Gust Speed Precip Events Conditions
12:16 AM 50.0 °F 48.2 °F 94% 30.23 in 10.0 mi Calm Calm - N/A   Clear
12:36 AM 51.8 °F 48.2 °F 88% 30.23 in 10.0 mi Calm Calm - N/A   Clear
12:56 AM 51.8 °F 48.2 °F 88% 30.23 in 10.0 mi Calm Calm - N/A   Clear
1:36 AM 48.2 °F 46.4 °F 93% 30.22 in 10.0 mi Calm Calm - N/A   Scattered Clouds
1:56 AM 48.2 °F 46.4 °F 93% 30.22 in 10.0 mi Calm Calm - N/A   Overcast
2:16 AM 50.0 °F 46.4 °F 87% 30.22 in 10.0 mi Calm Calm - N/A   Overcast
2:36 AM 50.0 °F 46.4 °F 87% 30.21 in 10.0 mi Calm Calm - N/A   Overcast
2:56 AM 50.0 °F 46.4 °F 87% 30.21 in 10.0 mi Calm Calm - N/A   Overcast
3:16 AM 50.0 °F 46.4 °F 87% 30.21 in 10.0 mi Calm Calm - N/A   Overcast
3:36 AM 50.0 °F 48.2 °F 94% 30.21 in 10.0 mi Calm Calm - N/A   Mostly Cloudy
4:16 AM 50.0 °F 46.4 °F 87% 30.21 in 2.5 mi Calm Calm - N/A   Mostly Cloudy
5:16 AM 48.2 °F 46.4 °F 93% 30.21 in 0.8 mi Calm Calm - N/A   Overcast
5:36 AM 48.2 °F 46.4 °F 93% 30.20 in 2.5 mi SSW 3.5 mph - N/A   Mostly Cloudy
6:00 AM 48.2 °F 44.6 °F 87% 30.21 in 10.0 mi Calm Calm - N/A Fog Patches of Fog
6:16 AM 48.2 °F 46.4 °F 93% 30.21 in 10.0 mi Calm Calm - N/A   Scattered Clouds
6:36 AM 48.2 °F 48.2 °F 100% 30.21 in 10.0 mi ENE 3.5 mph - N/A   Scattered Clouds
6:56 AM 48.2 °F 46.4 °F 93% 30.21 in 3.0 mi ENE 3.5 mph - N/A   Mostly Cloudy
7:16 AM 48.2 °F 46.4 °F 93% 30.21 in 10.0 mi Calm Calm - N/A   Mostly Cloudy
7:36 AM 48.2 °F 46.4 °F 93% 30.21 in 10.0 mi Calm Calm - N/A   Mostly Cloudy
8:56 AM 53.6 °F 48.2 °F 82% 30.20 in 10.0 mi ENE 3.5 mph - N/A   Scattered Clouds
9:16 AM 55.4 °F 50.0 °F 82% 30.20 in 10.0 mi Calm Calm - N/A   Scattered Clouds
9:36 AM 55.4 °F 50.0 °F 82% 30.20 in 10.0 mi ENE 3.5 mph - N/A   Scattered Clouds
9:56 AM 57.2 °F 51.8 °F 82% 30.20 in 10.0 mi NNE 3.5 mph - N/A   Scattered Clouds
10:16 AM 57.2 °F 50.0 °F 77% 30.20 in 10.0 mi Calm Calm - N/A   Scattered Clouds
11:55 AM 60.8 °F 51.8 °F 72% 30.18 in 10.0 mi NE 4.6 mph - N/A   Scattered Clouds
12:55 PM 62.6 °F 51.8 °F 68% 30.17 in 10.0 mi NE 4.6 mph - N/A   Clear
1:16 PM 64.4 °F 51.8 °F 64% 30.17 in 10.0 mi ENE 4.6 mph - N/A   Clear
1:56 PM 64.4 °F 51.8 °F 64% 30.16 in 10.0 mi ENE 4.6 mph - N/A   Clear
2:36 PM 64.4 °F 51.8 °F 64% 30.15 in 10.0 mi ENE 4.6 mph - N/A   Clear
3:16 PM 66.2 °F 48.2 °F 52% 30.15 in 10.0 mi ENE 3.5 mph - N/A   Clear
3:36 PM 66.2 °F 50.0 °F 56% 30.14 in 10.0 mi ENE 4.6 mph - N/A   Clear
4:16 PM 66.2 °F 48.2 °F 52% 30.13 in 10.0 mi East 5.8 mph - N/A   Partly Cloudy
4:36 PM 66.2 °F 48.2 °F 52% 30.13 in 10.0 mi ENE 4.6 mph - N/A   Partly Cloudy
4:56 PM 62.6 °F 48.2 °F 59% 30.12 in 10.0 mi ENE 5.8 mph - N/A   Partly Cloudy
5:16 PM 60.8 °F 48.2 °F 63% 30.12 in 10.0 mi NE 4.6 mph - N/A   Partly Cloudy
5:36 PM 60.8 °F 48.2 °F 63% 30.12 in 10.0 mi Calm Calm - N/A   Partly Cloudy
5:56 PM 60.8 °F 50.0 °F 68% 30.12 in 10.0 mi Calm Calm - N/A   Clear
6:16 PM 60.8 °F 48.2 °F 63% 30.11 in 10.0 mi ENE 3.5 mph - N/A   Clear
6:36 PM 57.2 °F 48.2 °F 72% 30.11 in 10.0 mi Calm Calm - N/A   Clear
6:56 PM 57.2 °F 48.2 °F 72% 30.11 in 10.0 mi Calm Calm - N/A   Clear
7:56 PM 57.2 °F 48.2 °F 72% 30.13 in 10.0 mi Calm Calm - N/A   Clear
8:36 PM 55.4 °F 51.8 °F 88% 30.12 in 10.0 mi Calm Calm - N/A   Clear
8:56 PM 55.4 °F 51.8 °F 88% 30.12 in 10.0 mi East 3.5 mph - N/A   Clear
9:16 PM 55.4 °F 51.8 °F 88% 30.12 in 10.0 mi Calm Calm - N/A   Clear
9:36 PM 53.6 °F 50.0 °F 88% 30.12 in 10.0 mi Calm Calm - N/A   Clear
9:56 PM 55.4 °F 51.8 °F 88% 30.12 in 10.0 mi Calm Calm - N/A   Clear
10:16 PM 55.4 °F 51.8 °F 88% 30.12 in 10.0 mi Calm Calm - N/A   Clear
10:36 PM 53.6 °F 50.0 °F 88% 30.12 in 10.0 mi Calm Calm - N/A   Clear
11:16 PM 53.6 °F 51.8 °F 94% 30.12 in 10.0 mi Calm Calm - N/A   Clear
11:36 PM 53.6 °F 50.0 °F 88% 30.12 in 10.0 mi Calm Calm - N/A   Clear